Погода в Подывотье

Россия / Брянская область     52°03′28″N   34°08′43″E
темп.,
°C
ветер,
м/с
пор.,
м/с
влажн.,
%
обл.,
%
осадки,
мм/ч
давл.,
гПа
погр.,
м
7 июля, чт
чт700:00+21юв487599 0.0 1011133
03:00+20ююв411665 0.0 1011193
06:00+20ю247295 0.0 101179
09:00+21сз347786 0.1 1012265
12:00+26зсз33587 0.0 10131089
15:00+27зсз335551 0.0 10131293
18:00+22ссз5777100 1.6 1014465
21:00+18ссз2284100 1.6 101638
8 июля, пт
пт800:00+16с368883 0.1 1017123
03:00+14с3595100 0.1 1016107
06:00+14с36935 0.0 1017160
09:00+19с337558 0.2 1017525
12:00+23ссз3361100 0.3 1017964
15:00+25ссв3455100 0.3 1016990
18:00+25св235893 0.0 10151214
21:00+20с33815 0.1 101541
9 июля, сб
сб900:00+16с499091 0.6 1015180
03:00+15с499690 1.3 1015190
06:00+15с5798100 4.3 1014191
09:00+19св578798 4.6 1014333
12:00+22с3470100 0.0 1014737
15:00+24ссв5564100 0.2 1012660
18:00+23св456997 0.0 1010402
21:00+18ссз479354 0.9 1011111
10 июля, вс
вс1000:00+16всв2598100 5.9 1010144
03:00+16с359879 9.8 1008113
06:00+17св229492 0.2 100860
09:00+21в337632 0.2 1008408
12:00+24юв2260100 0.0 1007978
15:00+26вюв2354100 0.0 10061405
18:00+23ююв2375100 3.6 100676
21:00+16зсз4796100 11.1 1007192
11 июля, пн
пн1100:00+16с379889 0.9 1007180
03:00+15с369987 2.6 1006175
06:00+15с5899100 3.3 1004263
09:00+16св4899100 14.8 1002432
12:00+17ююв4695100 1.8 1003398
15:00+17з7792100 1.9 1003563
18:00+14з81595100 0.8 1005820
21:00+14з61395100 2.9 1008509